THOR ABLESTAR DEB, 552

Orbit data source: Space-Track

THOR ABLESTAR DEB, 552 is space debris in LEO originally from a launch on Thu, 29 Jun 1961 UTC launched from the Air Force Eastern Test Range (AFETR). Debris objects in space refer to the collection of defunct objects orbiting the Earth. Examples of debris include non-operational satellites, rocket bodies, and fragments generated from explosions, collisions, or faulty payload assembly.

Loading next visibility...
THOR ABLESTAR DEB details
Identifier
552, 1961-015GM
Orbit
LEO
Last TLE update10 hours ago
Origin
Flag of USUSAF SSD (US)
ManufacturerUnknown
MissionSpacecraft
Bus & MotorUnknown
MassUnknown
Launch date (UTC)
1961-06-29 (64 years ago)
Launch vehicleUnknown
Launch site
Air Force Eastern Test Range (AFETR)
Object type
Payload
Rocket body
Debris
Shape & HBRUnknown
Radar Cross SectionSmall (<0.1 m²)

Expand to show TLE details & history

TLE from 10 hours ago
0 THOR ABLESTAR DEB
1 00552U 61015GM  25047.61096946  .00002330  00000-0  16291-2 0  9993
2 00552  67.7366 126.9373 0099562  66.4241 294.7267 13.97666485188799
Epoch: 2025-02-16T14:39Z
Definitive object data (Epoch: 2025-02-16T14:39:47.761Z)
Latitude-0.00002°
Longitude120.14674°
Altitude874.318 km
Speed7.431 km/s
True Right ascension08h 27m 44s
True Declination0° 00' 00"
Sunlit
Object was in full shadow at TLE epoch
Visualization TLE readout
Latitude-13.94502°
Longitude113.33061°
Altitude894.777 km
Speed7.411 km/s
Apparent Right ascension10h 47m 31s
Apparent Declination-41° 12' 13"
Sunlit
Object is in full shadow
Visualization observer readout
Local Sidereal Time03:42:22
Azimuth117.118° SE
Elevation-35.77°
Doppler factor1
Orbital elements
Apogee altitude972.633 km
Perigee altitude827.705 km
Semi-major axis7,278.306 km
Eccentricity0.0099562
Inclination67.7366°
RAAN126.9373°
Arg. of periapsis66.4241°
True anomaly293.68504°
Mean anomaly294.7267°
Eccentric anomaly294.20641°
Mean motion3.49541 °/min
BSTAR0.0016291
Orbital period102.99 mins
Loading maneuver chart data...

THOR ABLESTAR DEB Visibility forecast

Observer location: undefined°, undefined

Span
Click to sort rows by Start time (UTC) header in descending order
Start Az.
Max El. time (UTC)
Max El. Az.
Max El.
End time (UTC)
End Az.
10 mins2025-02-17 06:13:48.314Z183.382° SSW2025-02-17 06:18:48.314Z112.704° SE36.742°2025-02-17 06:23:48.314Z39.948° NE
7 mins2025-02-17 08:01:48.314Z266.784° W2025-02-17 08:04:48.314Z309.663° NW23.396°2025-02-17 08:08:48.314Z1.435° NNE
9 mins2025-02-17 15:15:48.314Z355.439° N2025-02-17 15:19:48.314Z64.385° ENE32.534°2025-02-17 15:24:48.314Z123.966° SE
8 mins2025-02-17 17:01:48.314Z299.98° NW2025-02-17 17:04:48.314Z256.926° W26.968°2025-02-17 17:09:48.314Z194.307° SSW
|